SCP
0 0 0 0 0 -0 0 0 0 0 0 0 0 0 0 0 0 -0 0 0 0 0 0 0 0 0 0 0 0 0 0 0 0 0 0 0 0 0 0 -0 -0 -0 -0
0 0 0 0 0 -0 0 0 -0 0 0 0 0 0 0 0 0 0 0 0 0 0 0 0 0 0 0 0 0 0 0 0 0 0 0 0 0 0 0 -0 -0 -0 -0
0 0 0 0 0 0 0 0 -0 0 0 0 0 0 0 0 0 0 0 0 0 0 0 0 0 0 0 0 0 0 0 0 0 0 0 0 0 0 0 0 -0 -0 -0
0 0 0 0 0 0 0 0 0 0 0 0 0 0 0 0 0 0 0 0 0 -0 0 -0 0 -0 -0 0 0 0 0 0 0 0 0 0 0 0 0 0 0 0 -0
0 0 0 0 0 0 0 0 0 0 0 0 0 0 0 0 0 0 0 0 0 0 0 0 0 0 -0 0 0 0 0 0 0 0 0 0 0 0 0 0 0 0 0
0 0 0 0 0 0 0 0 0 0 0 0 0 0 0 0 0 0 0 0 0 0 0 0 0 -0 -0 -0 -0 -0 -0 -0 -0 -0 0 0 0 0 0 0 0 0 0
0 0 0 0 0 0 0 0 0 0 0 0 0 0 0 0 -0 -0 0 0 0 0 -0 0 0 0 -0 -0 -0 -0 0 0 -0 -0 -0 0 0 0 0 0 0 0 0
0 0 0 0 0 0 0 0 0 0 0 0 0 0 -0 0 -0 -0 -0 -0 0 0 0 -0 -0 -0 -0 -0 -0 0 0 -0 0 0 -0 -0 -0 0 0 0 0 0 0
0 0 0 0 0 0 0 0 0 0 0 0 0 0 -0 -0 -0 -0 -0 -0 -0 -0 -0 0 0 -0 -0 -0 0 0 0 -0 -0 -0 -0 0 0 -0 -0 -0 0 0 0
0 0 0 0 0 0 0 0 0 0 0 0 0 0 0 0 0 0 -0 -0 -0 -0 -0 -0 -0 -0 -0 -0 -0 -0 -0 -0 -0 0 0 -0 -0 -0 -0 0 0 0 0
0 0 0 0 0 0 0 0 0 0 0 0 0 0 0 0 0 0 -0 0 -0 -0 -0 -0 -0 -0 -0 -0 -0 -0 -0 0 -0 0 0 0 0 0 0 0 0 0 0
0 0 0 0 0 0 0 0 0 0 0 0 0 0 0 0 0 0 0 0 -0 0 -0 -0 0 -0 -0 -0 -0 -0 -0 -0 -0 -0 -0 0 0 0 0 0 0 0 0
0 0 0 0 0 0 0 0 0 0 0 0 0 0 0 0 0 0 0 0 0 0 -0 0 -0 -0 -0 -0 0 -0 -0 -0 -0 -0 0 0 0 0 0 0 0 0 0
0 0 0 0 0 0 0 0 0 0 0 0 0 0 0 0 0 0 0 0 0 0 0 -0 -0 0 -0 -0 -0 -0 -0 -0 -0 -0 0 0 0 0 0 0 0 0 0
0 0 0 0 0 0 0 0 0 0 0 0 0 0 0 0 0 0 0 0 0 0 0 0 0 0 0 0 0 0 0 0 0 0 -0 -0 0 0 0 0 0 0 0
0 0 0 0 0 0 0 0 0 0 0 0 0 0 0 0 0 0 0 0 0 0 0 0 0 0 0 0 0 0 0 -0 -0 -0 -0 -0 -0 -0 -0 -0 -0 0 0
0 0 0 0 0 0 0 0 0 0 0 0 0 0 0 0 0 0 0 0 0 0 0 0 0 0 0 0 0 0 0 0 0 0 0 0 -0 -0 -0 -0 -0 -0 0
0 0 0 0 0 0 0 0 0 0 0 0 0 0 0 0 0 0 0 0 0 0 0 0 0 0 0 0 0 0 0 0 0 0 0 0 0 0 0 0 0 -0 -0
0 0 0 0 0 0 0 0 0 0 0 0 0 0 0 0 0 0 0 0 0 0 0 0 0 0 0 0 0 0 0 0 0 0 0 0 0 0 0 0 0 0 0
0 0 0 0 0 0 0 0 0 0 0 0 0 0 0 0 0 0 0 0 0 0 0 0 0 0 0 0 0 0 0 0 0 0 0 0 0 0 0 0 0 0 0
0 0 0 0 0 0 0 0 0 0 0 0 0 0 0 0 0 0 0 0 0 0 0 0 0 0 0 0 0 0 0 0 0 0 0 0 0 0 0 0 0 0 0
0 0 0 0 0 0 0 0 0 0 0 0 0 0 0 0 0 0 0 0 0 0 0 0 0 0 0 0 0 0 0 0 0 0 0 0 0 0 0 0 0 0 0
0 -0 -0 0 0 0 0 0 0 0 0 0 0 0 0 0 0 0 0 0 0 0 0 0 0 0 0 0 0 0 0 0 0 0 0 0 0 0 0 0 0 0 0
0 0 -0 -0 0 0 0 0 0 0 0 0 0 0 0 0 0 0 0 0 0 0 0 0 0 0 0 0 0 0 0 0 0 0 0 0 0 0 0 0 0 0 0
-0 -0 -0 -0 -0 0 0 0 0 0 0 0 0 0 0 0 0 0 0 0 0 0 0 0 0 0 0 0 0 0 0 0 0 0 0 0 0 0 0 0 0 0 0
0 0 -0 -0 0 0 0 0 0 0 0 0 0 0 0 0 0 0 0 0 0 0 0 0 0 0 0 0 0 0 0 0 0 0 0 0 0 0 0 0 0 0 0
Wind_Speed_500mb
93 79 82 86 89 77 67 59 59 53 43 35 26 15 7 9 13 19 16 36 38 43 46 47 57 62 44 43 50 47 44 47 57 56 55 58 57 55 58 60 61 62 65
90 79 75 78 84 77 69 59 51 53 46 36 28 20 15 12 11 13 18 23 20 35 32 30 36 33 61 65 47 49 50 57 55 51 53 57 62 57 61 65 61 63 68
88 77 78 76 83 78 72 65 54 45 40 35 28 23 20 15 10 9 12 15 24 26 29 35 37 39 43 47 50 75 57 59 65 54 51 46 47 54 54 57 59 60 62
87 81 75 77 73 78 72 69 65 62 53 38 33 28 21 20 20 18 13 21 29 21 26 29 27 33 31 35 43 43 49 67 60 53 54 52 51 55 54 54 56 65 65
84 83 71 72 64 67 73 75 73 75 79 75 53 31 24 30 25 13 10 12 14 23 28 26 32 32 34 32 37 38 38 40 53 54 56 56 48 56 56 60 67 57 52
83 81 67 67 65 63 66 75 78 81 82 84 80 78 70 35 19 22 26 34 10 16 13 15 26 24 27 33 36 34 36 38 44 49 53 58 58 60 62 63 48 47 34
80 81 67 62 65 64 66 69 76 81 84 87 88 92 83 67 32 9 20 27 29 5 10 8 10 14 16 23 26 25 30 37 44 47 52 57 61 61 59 56 49 44 35
75 80 70 61 60 59 58 65 71 75 79 82 86 93 93 80 67 48 17 12 17 6 2 11 17 17 23 27 29 33 35 42 47 55 62 61 55 55 52 47 47 42 39
69 76 67 64 62 59 60 61 63 70 74 77 81 79 91 85 81 82 84 81 76 67 51 30 18 12 10 29 34 28 21 15 1 20 28 30 35 36 38 40 46 53 49
60 66 62 60 62 62 61 63 66 64 61 65 73 76 83 77 75 70 78 79 81 76 69 62 52 46 34 21 27 33 36 34 36 39 43 46 44 37 39 44 57 57 52
50 56 61 54 61 63 62 59 61 69 74 76 70 63 66 68 67 64 66 72 67 66 64 60 55 52 50 47 44 42 43 39 40 41 40 37 32 35 38 39 40 39 34
48 51 55 60 58 62 71 66 65 64 61 61 71 75 65 56 57 58 59 58 58 65 64 58 53 50 47 43 43 41 44 45 46 50 50 50 49 46 41 35 28 26 26
46 49 51 50 51 63 58 67 75 70 58 59 59 61 70 61 58 48 50 47 50 56 51 48 46 47 51 52 45 41 42 48 52 54 52 50 46 43 43 40 36 32 31
44 47 50 49 49 49 59 64 68 71 64 60 57 59 58 60 60 49 50 51 50 51 51 50 50 52 53 51 50 50 50 46 45 46 42 37 32 29 25 24 25 25 27
44 46 48 47 48 46 50 56 56 60 60 59 50 53 56 61 53 48 47 46 46 44 47 51 54 54 53 51 49 47 45 42 42 39 37 36 35 32 28 22 23 22 29
47 49 47 44 45 43 43 45 50 49 52 56 53 50 49 45 44 48 49 46 46 46 54 56 53 49 47 44 44 42 40 37 34 31 31 29 28 26 23 21 20 21 22
44 46 46 44 43 43 42 47 51 52 53 54 53 52 51 51 53 49 47 48 51 52 60 55 52 49 46 42 39 38 38 35 30 29 27 26 24 23 19 20 20 20 22
39 41 42 42 41 40 41 45 49 54 55 56 57 58 57 54 51 50 50 51 59 60 58 54 51 46 44 42 42 39 35 34 34 34 34 32 30 30 28 26 22 20 17
37 40 39 38 38 39 38 41 47 51 54 53 53 54 59 55 53 55 56 62 61 59 56 53 50 48 45 43 41 38 37 35 35 36 34 32 31 31 31 30 28 26 23
34 34 35 36 34 36 38 41 44 49 52 54 56 55 53 51 58 59 59 59 59 57 54 52 49 47 45 43 41 37 35 33 32 31 31 32 33 32 32 33 32 30 30
30 32 32 33 33 34 37 40 42 46 51 52 53 53 52 54 56 57 57 56 55 54 52 50 48 47 44 42 41 39 38 36 33 32 30 29 27 27 27 26 25 23 21
26 27 28 31 31 30 33 35 38 41 45 48 48 49 50 53 54 55 55 53 52 51 49 47 46 45 44 43 42 40 39 37 36 34 32 31 28 27 29 32 36 36 36
19 22 23 25 28 27 27 30 33 35 39 42 43 45 49 51 52 53 53 52 52 52 50 48 46 46 45 44 42 41 40 41 40 38 35 34 31 29 29 32 35 39 41
15 18 19 20 22 23 24 26 28 30 32 36 39 42 44 46 47 49 49 50 51 52 53 54 53 51 49 48 48 46 44 44 42 41 42 41 40 39 38 36 36 35 35
12 13 15 17 17 20 20 21 22 25 26 29 33 36 38 39 41 44 45 47 48 51 53 55 57 58 58 57 55 52 49 47 45 43 42 42 42 42 44 43 43 42 40
12 10 11 13 14 14 16 16 17 18 20 23 26 29 31 33 35 37 40 42 45 48 50 52 54 56 57 58 58 57 56 55 53 49 45 42 41 41 41 42 42 42 42
Wind_Direction_500mb
355 3 10 8 5 6 11 19 22 11 7 9 7 8 351 296 257 236 236 240 244 234 242 240 237 230 221 220 229 236 239 240 251 260 265 269 277 282 285 288 289 287 286
359 7 9 10 5 10 15 19 22 25 10 11 12 10 0 336 292 270 249 237 244 245 247 256 239 238 238 236 235 227 238 242 251 264 268 270 269 271 279 285 291 288 290
5 8 11 15 11 14 20 22 21 23 23 11 11 4 354 354 340 304 265 248 239 241 242 242 240 243 238 241 245 238 239 242 247 255 262 258 263 269 277 285 288 292 291
9 12 11 17 18 21 25 32 35 38 32 24 11 356 344 329 311 304 274 258 250 241 248 244 242 243 239 237 236 239 240 242 248 246 259 254 262 262 272 278 287 300 294
11 13 13 18 21 27 30 36 39 43 40 31 22 2 355 346 279 276 288 269 247 244 237 239 235 237 243 243 234 232 230 238 237 238 249 253 255 258 269 277 284 281 288
16 14 15 21 23 27 33 36 42 43 43 37 32 27 20 15 346 244 264 259 230 225 226 253 245 235 242 241 239 241 240 245 237 237 247 253 253 262 267 275 273 273 256
20 21 19 25 27 33 40 41 42 42 43 45 35 35 31 27 14 319 251 270 259 164 211 253 218 233 246 246 245 233 233 231 237 244 252 258 263 269 271 268 266 256 230
23 24 22 27 30 33 42 43 44 42 41 38 42 40 38 40 50 61 89 160 160 184 270 211 226 241 234 243 244 251 252 252 253 256 261 264 262 263 267 263 257 218 167
25 28 27 32 34 36 41 45 46 45 45 43 44 46 45 41 50 64 72 75 74 70 67 65 61 70 190 239 243 245 247 239 2 268 261 255 247 246 249 244 192 168 146
27 31 33 38 42 44 46 49 52 50 46 44 46 46 48 48 45 53 68 72 74 72 67 64 60 67 77 91 115 120 109 104 111 111 112 115 119 124 159 171 164 155 145
29 35 39 39 48 48 46 46 52 54 49 44 44 45 50 47 47 48 55 65 69 68 67 69 68 68 70 75 85 94 102 111 109 106 106 108 113 131 136 147 154 155 156
32 36 39 40 43 50 43 42 40 44 36 35 36 39 40 49 46 46 52 55 64 66 65 69 68 65 67 74 80 88 99 103 102 102 101 98 98 99 104 108 110 108 110
33 34 33 33 33 44 43 35 39 40 43 39 38 38 39 38 45 49 51 56 64 69 66 65 69 77 79 74 69 82 90 93 94 94 93 92 90 92 94 94 97 102 103
35 34 33 31 32 42 48 46 39 37 44 46 41 43 42 43 39 47 55 62 65 69 74 74 77 79 78 79 79 81 84 83 87 91 92 94 97 101 101 110 116 114 113
38 36 37 34 37 42 44 54 45 44 41 43 44 49 46 47 45 48 52 62 70 74 78 76 73 72 72 73 74 75 77 82 85 90 96 99 97 99 100 105 105 109 100
40 38 37 38 41 47 52 54 62 61 50 50 48 47 56 53 53 55 56 65 72 72 73 71 70 68 67 67 68 71 71 73 76 83 90 95 95 93 97 99 102 100 97
41 43 41 44 45 51 56 59 59 59 54 56 54 49 52 55 54 56 62 71 72 71 71 70 69 67 66 66 68 68 68 68 72 77 78 79 83 88 88 86 86 88 87
45 47 44 45 49 55 59 60 60 60 56 53 55 58 59 58 59 63 64 68 67 65 67 67 68 68 69 69 68 69 71 70 70 73 75 77 80 83 87 85 81 79 75
44 49 49 48 52 58 65 64 63 62 63 60 59 56 60 58 59 61 60 60 61 61 62 63 63 64 64 65 65 66 68 68 66 65 65 67 69 70 71 71 68 65 61
45 51 52 56 58 63 68 68 64 64 62 60 59 57 57 59 58 58 59 59 60 60 59 59 59 60 60 60 60 60 61 61 61 61 59 56 56 57 58 59 60 59 56
49 52 55 60 60 63 65 66 64 62 63 60 60 59 56 56 58 58 58 59 59 59 56 55 56 57 57 57 56 55 54 54 55 58 60 61 61 59 57 53 48 47 49
51 53 56 61 63 65 65 66 65 65 64 64 63 64 61 60 59 58 58 58 57 58 58 57 55 54 52 52 52 53 53 53 53 53 52 54 54 56 57 58 59 64 71
55 55 56 62 65 64 68 68 68 67 68 65 64 63 62 60 59 59 59 58 57 57 56 55 55 55 55 54 53 52 51 51 52 53 55 56 58 63 65 68 71 77 81
52 61 59 61 67 69 69 71 71 70 70 69 66 64 63 62 61 59 58 58 57 56 57 57 56 55 53 53 54 55 55 54 56 61 64 64 65 68 72 78 78 80 82
49 61 68 67 66 71 70 72 74 75 74 72 71 67 63 62 63 62 59 58 59 59 58 57 58 59 58 57 55 54 55 55 53 55 61 66 68 70 72 75 79 81 83
24 52 65 68 69 70 75 73 75 76 79 79 77 74 70 66 63 62 61 60 59 58 58 58 58 58 58 58 58 58 58 58 58 57 58 61 66 72 74 76 77 77 80
Wind_Speed_850mb
93 79 82 86 89 77 67 59 59 53 43 35 26 15 7 9 13 19 16 36 38 43 46 47 57 62 44 43 50 47 44 47 57 56 55 58 57 55 58 60 61 62 65
90 79 75 78 84 77 69 59 51 53 46 36 28 20 15 12 11 13 18 23 20 35 32 30 36 33 61 65 47 49 50 57 55 51 53 57 62 57 61 65 61 63 68
88 77 78 76 83 78 72 65 54 45 40 35 28 23 20 15 10 9 12 15 24 26 29 35 37 39 43 47 50 75 57 59 65 54 51 46 47 54 54 57 59 60 62
87 81 75 77 73 78 72 69 65 62 53 38 33 28 21 20 20 18 13 21 29 21 26 29 27 33 31 35 43 43 49 67 60 53 54 52 51 55 54 54 56 65 65
84 83 71 72 64 67 73 75 73 75 79 75 53 31 24 30 25 13 10 12 14 23 28 26 32 32 34 32 37 38 38 40 53 54 56 56 48 56 56 60 67 57 52
83 81 67 67 65 63 66 75 78 81 82 84 80 78 70 35 19 22 26 34 10 16 13 15 26 24 27 33 36 34 36 38 44 49 53 58 58 60 62 63 48 47 34
80 81 67 62 65 64 66 69 76 81 84 87 88 92 83 67 32 9 20 27 29 5 10 8 10 14 16 23 26 25 30 37 44 47 52 57 61 61 59 56 49 44 35
75 80 70 61 60 59 58 65 71 75 79 82 86 93 93 80 67 48 17 12 17 6 2 11 17 17 23 27 29 33 35 42 47 55 62 61 55 55 52 47 47 42 39
69 76 67 64 62 59 60 61 63 70 74 77 81 79 91 85 81 82 84 81 76 67 51 30 18 12 10 29 34 28 21 15 1 20 28 30 35 36 38 40 46 53 49
60 66 62 60 62 62 61 63 66 64 61 65 73 76 83 77 75 70 78 79 81 76 69 62 52 46 34 21 27 33 36 34 36 39 43 46 44 37 39 44 57 57 52
50 56 61 54 61 63 62 59 61 69 74 76 70 63 66 68 67 64 66 72 67 66 64 60 55 52 50 47 44 42 43 39 40 41 40 37 32 35 38 39 40 39 34
48 51 55 60 58 62 71 66 65 64 61 61 71 75 65 56 57 58 59 58 58 65 64 58 53 50 47 43 43 41 44 45 46 50 50 50 49 46 41 35 28 26 26
46 49 51 50 51 63 58 67 75 70 58 59 59 61 70 61 58 48 50 47 50 56 51 48 46 47 51 52 45 41 42 48 52 54 52 50 46 43 43 40 36 32 31
44 47 50 49 49 49 59 64 68 71 64 60 57 59 58 60 60 49 50 51 50 51 51 50 50 52 53 51 50 50 50 46 45 46 42 37 32 29 25 24 25 25 27
44 46 48 47 48 46 50 56 56 60 60 59 50 53 56 61 53 48 47 46 46 44 47 51 54 54 53 51 49 47 45 42 42 39 37 36 35 32 28 22 23 22 29
47 49 47 44 45 43 43 45 50 49 52 56 53 50 49 45 44 48 49 46 46 46 54 56 53 49 47 44 44 42 40 37 34 31 31 29 28 26 23 21 20 21 22
44 46 46 44 43 43 42 47 51 52 53 54 53 52 51 51 53 49 47 48 51 52 60 55 52 49 46 42 39 38 38 35 30 29 27 26 24 23 19 20 20 20 22
39 41 42 42 41 40 41 45 49 54 55 56 57 58 57 54 51 50 50 51 59 60 58 54 51 46 44 42 42 39 35 34 34 34 34 32 30 30 28 26 22 20 17
37 40 39 38 38 39 38 41 47 51 54 53 53 54 59 55 53 55 56 62 61 59 56 53 50 48 45 43 41 38 37 35 35 36 34 32 31 31 31 30 28 26 23
34 34 35 36 34 36 38 41 44 49 52 54 56 55 53 51 58 59 59 59 59 57 54 52 49 47 45 43 41 37 35 33 32 31 31 32 33 32 32 33 32 30 30
30 32 32 33 33 34 37 40 42 46 51 52 53 53 52 54 56 57 57 56 55 54 52 50 48 47 44 42 41 39 38 36 33 32 30 29 27 27 27 26 25 23 21
26 27 28 31 31 30 33 35 38 41 45 48 48 49 50 53 54 55 55 53 52 51 49 47 46 45 44 43 42 40 39 37 36 34 32 31 28 27 29 32 36 36 36
19 22 23 25 28 27 27 30 33 35 39 42 43 45 49 51 52 53 53 52 52 52 50 48 46 46 45 44 42 41 40 41 40 38 35 34 31 29 29 32 35 39 41
15 18 19 20 22 23 24 26 28 30 32 36 39 42 44 46 47 49 49 50 51 52 53 54 53 51 49 48 48 46 44 44 42 41 42 41 40 39 38 36 36 35 35
12 13 15 17 17 20 20 21 22 25 26 29 33 36 38 39 41 44 45 47 48 51 53 55 57 58 58 57 55 52 49 47 45 43 42 42 42 42 44 43 43 42 40
12 10 11 13 14 14 16 16 17 18 20 23 26 29 31 33 35 37 40 42 45 48 50 52 54 56 57 58 58 57 56 55 53 49 45 42 41 41 41 42 42 42 42
Wind_Direction_850mb
355 3 10 8 5 6 11 19 22 11 7 9 7 8 351 296 257 236 236 240 244 234 242 240 237 230 221 220 229 236 239 240 251 260 265 269 277 282 285 288 289 287 286
359 7 9 10 5 10 15 19 22 25 10 11 12 10 0 336 292 270 249 237 244 245 247 256 239 238 238 236 235 227 238 242 251 264 268 270 269 271 279 285 291 288 290
5 8 11 15 11 14 20 22 21 23 23 11 11 4 354 354 340 304 265 248 239 241 242 242 240 243 238 241 245 238 239 242 247 255 262 258 263 269 277 285 288 292 291
9 12 11 17 18 21 25 32 35 38 32 24 11 356 344 329 311 304 274 258 250 241 248 244 242 243 239 237 236 239 240 242 248 246 259 254 262 262 272 278 287 300 294
11 13 13 18 21 27 30 36 39 43 40 31 22 2 355 346 279 276 288 269 247 244 237 239 235 237 243 243 234 232 230 238 237 238 249 253 255 258 269 277 284 281 288
16 14 15 21 23 27 33 36 42 43 43 37 32 27 20 15 346 244 264 259 230 225 226 253 245 235 242 241 239 241 240 245 237 237 247 253 253 262 267 275 273 273 256
20 21 19 25 27 33 40 41 42 42 43 45 35 35 31 27 14 319 251 270 259 164 211 253 218 233 246 246 245 233 233 231 237 244 252 258 263 269 271 268 266 256 230
23 24 22 27 30 33 42 43 44 42 41 38 42 40 38 40 50 61 89 160 160 184 270 211 226 241 234 243 244 251 252 252 253 256 261 264 262 263 267 263 257 218 167
25 28 27 32 34 36 41 45 46 45 45 43 44 46 45 41 50 64 72 75 74 70 67 65 61 70 190 239 243 245 247 239 2 268 261 255 247 246 249 244 192 168 146
27 31 33 38 42 44 46 49 52 50 46 44 46 46 48 48 45 53 68 72 74 72 67 64 60 67 77 91 115 120 109 104 111 111 112 115 119 124 159 171 164 155 145
29 35 39 39 48 48 46 46 52 54 49 44 44 45 50 47 47 48 55 65 69 68 67 69 68 68 70 75 85 94 102 111 109 106 106 108 113 131 136 147 154 155 156
32 36 39 40 43 50 43 42 40 44 36 35 36 39 40 49 46 46 52 55 64 66 65 69 68 65 67 74 80 88 99 103 102 102 101 98 98 99 104 108 110 108 110
33 34 33 33 33 44 43 35 39 40 43 39 38 38 39 38 45 49 51 56 64 69 66 65 69 77 79 74 69 82 90 93 94 94 93 92 90 92 94 94 97 102 103
35 34 33 31 32 42 48 46 39 37 44 46 41 43 42 43 39 47 55 62 65 69 74 74 77 79 78 79 79 81 84 83 87 91 92 94 97 101 101 110 116 114 113
38 36 37 34 37 42 44 54 45 44 41 43 44 49 46 47 45 48 52 62 70 74 78 76 73 72 72 73 74 75 77 82 85 90 96 99 97 99 100 105 105 109 100
40 38 37 38 41 47 52 54 62 61 50 50 48 47 56 53 53 55 56 65 72 72 73 71 70 68 67 67 68 71 71 73 76 83 90 95 95 93 97 99 102 100 97
41 43 41 44 45 51 56 59 59 59 54 56 54 49 52 55 54 56 62 71 72 71 71 70 69 67 66 66 68 68 68 68 72 77 78 79 83 88 88 86 86 88 87
45 47 44 45 49 55 59 60 60 60 56 53 55 58 59 58 59 63 64 68 67 65 67 67 68 68 69 69 68 69 71 70 70 73 75 77 80 83 87 85 81 79 75
44 49 49 48 52 58 65 64 63 62 63 60 59 56 60 58 59 61 60 60 61 61 62 63 63 64 64 65 65 66 68 68 66 65 65 67 69 70 71 71 68 65 61
45 51 52 56 58 63 68 68 64 64 62 60 59 57 57 59 58 58 59 59 60 60 59 59 59 60 60 60 60 60 61 61 61 61 59 56 56 57 58 59 60 59 56
49 52 55 60 60 63 65 66 64 62 63 60 60 59 56 56 58 58 58 59 59 59 56 55 56 57 57 57 56 55 54 54 55 58 60 61 61 59 57 53 48 47 49
51 53 56 61 63 65 65 66 65 65 64 64 63 64 61 60 59 58 58 58 57 58 58 57 55 54 52 52 52 53 53 53 53 53 52 54 54 56 57 58 59 64 71
55 55 56 62 65 64 68 68 68 67 68 65 64 63 62 60 59 59 59 58 57 57 56 55 55 55 55 54 53 52 51 51 52 53 55 56 58 63 65 68 71 77 81
52 61 59 61 67 69 69 71 71 70 70 69 66 64 63 62 61 59 58 58 57 56 57 57 56 55 53 53 54 55 55 54 56 61 64 64 65 68 72 78 78 80 82
49 61 68 67 66 71 70 72 74 75 74 72 71 67 63 62 63 62 59 58 59 59 58 57 58 59 58 57 55 54 55 55 53 55 61 66 68 70 72 75 79 81 83
24 52 65 68 69 70 75 73 75 76 79 79 77 74 70 66 63 62 61 60 59 58 58 58 58 58 58 58 58 58 58 58 58 57 58 61 66 72 74 76 77 77 80